• în România
  • Lista ţărilor
  • Pe 7 zile
  • Temperatura apei
  • Hartă satelitară
  • Meteo pe hartă
  • Widget-uri
  • user-avatar
    Intrare

    Meteo pe oră la Sharkovo

    Astăzi, 20 Iulie, Vineri

    Timp Temperatura Precipitaţii Vânt Presiune Umiditate
    00:00 +18°C° 0 mm 2 m/s 738 mmHg 98%
    01:00 +17°C° 0 mm 2 m/s 738 mmHg 98%
    02:00 +17°C° 0 mm 2 m/s 738 mmHg 98%
    03:00 +17°C° 0 mm 2 m/s 738 mmHg 98%
    04:00 +17°C° 0 mm 2 m/s 738 mmHg 98%
    05:00 +18°C° 0 mm 2 m/s 738 mmHg 98%
    06:00 +18°C° 0,2 mm 2 m/s 738 mmHg 97%
    07:00 +19°C° 0,2 mm 2 m/s 738 mmHg 96%
    08:00 +19°C° 0,2 mm 2 m/s 738 mmHg 95%
    09:00 +20°C° 0,3 mm 2 m/s 738 mmHg 94%
    10:00 +20°C° 0,3 mm 2 m/s 738 mmHg 93%
    11:00 +21°C° 0,3 mm 2 m/s 738 mmHg 93%
    12:00 +23°C° 0,3 mm 2 m/s 738 mmHg 87%
    13:00 +24°C° 0,3 mm 2 m/s 738 mmHg 81%
    14:00 +25°C° 0,3 mm 2 m/s 738 mmHg 75%
    15:00 +25°C° 0,7 mm 2 m/s 738 mmHg 79%
    16:00 +25°C° 0,7 mm 2 m/s 738 mmHg 82%
    17:00 +25°C° 0,7 mm 2 m/s 737 mmHg 85%
    18:00 +24°C° 0,4 mm 2 m/s 737 mmHg 88%
    19:00 +22°C° 0,4 mm 1 m/s 737 mmHg 92%
    20:00 +21°C° 0,4 mm 1 m/s 737 mmHg 95%
    21:00 +21°C° 0 mm 1 m/s 737 mmHg 95%
    22:00 +20°C° 0 mm 1 m/s 737 mmHg 96%
    23:00 +19°C° 0 mm 1 m/s 737 mmHg 97%

    Mâine, 21 Iulie, Sâmbătă

    Timp Temperatura Precipitaţii Vânt Presiune Umiditate
    00:00 +19°C° 0 mm 1 m/s 737 mmHg 97%
    01:00 +17°C° 0 mm 0 m/s 737 mmHg 97%
    02:00 +17°C° 0 mm 0 m/s 737 mmHg 97%
    03:00 +17°C° 0 mm 0 m/s 737 mmHg 98%
    04:00 +17°C° 0 mm 0 m/s 738 mmHg 98%
    05:00 +17°C° 0 mm 0 m/s 738 mmHg 98%
    06:00 +19°C° 0 mm 0 m/s 738 mmHg 94%
    07:00 +20°C° 0 mm 0 m/s 738 mmHg 90%
    08:00 +22°C° 0 mm 0 m/s 738 mmHg 85%
    09:00 +23°C° 0,1 mm 0 m/s 738 mmHg 79%
    10:00 +25°C° 0,1 mm 0 m/s 738 mmHg 73%
    11:00 +26°C° 0,1 mm 0 m/s 738 mmHg 67%
    12:00 +26°C° 0,3 mm 0 m/s 738 mmHg 66%
    13:00 +26°C° 0,3 mm 0 m/s 738 mmHg 66%
    14:00 +26°C° 0,3 mm 0 m/s 738 mmHg 65%
    15:00 +28°C° 0,7 mm 1 m/s 738 mmHg 71%
    16:00 +27°C° 0,7 mm 1 m/s 738 mmHg 77%
    17:00 +26°C° 0,7 mm 1 m/s 738 mmHg 82%
    18:00 +25°C° 0,6 mm 1 m/s 738 mmHg 86%
    19:00 +24°C° 0,6 mm 1 m/s 738 mmHg 90%
    20:00 +22°C° 0,6 mm 1 m/s 738 mmHg 94%
    21:00 +22°C° 0,8 mm 1 m/s 738 mmHg 95%
    22:00 +21°C° 0,8 mm 1 m/s 738 mmHg 96%
    23:00 +21°C° 0,8 mm 1 m/s 738 mmHg 97%

    Poimâine, 22 Iulie, Duminică

    Timp Temperatura Precipitaţii Vânt Presiune Umiditate
    00:00 +21°C° 0,1 mm 1 m/s 738 mmHg 97%
    01:00 +20°C° 0,1 mm 1 m/s 738 mmHg 97%
    02:00 +20°C° 0,1 mm 1 m/s 737 mmHg 98%
    03:00 +20°C° 0 mm 1 m/s 737 mmHg 98%
    04:00 +20°C° 0 mm 1 m/s 737 mmHg 98%
    05:00 +20°C° 0 mm 1 m/s 737 mmHg 98%
    06:00 +20°C° 0,1 mm 2 m/s 738 mmHg 97%
    07:00 +21°C° 0,1 mm 2 m/s 738 mmHg 95%
    08:00 +23°C° 0,1 mm 2 m/s 738 mmHg 94%
    09:00 +23°C° 0,3 mm 2 m/s 738 mmHg 91%
    10:00 +24°C° 0,3 mm 2 m/s 738 mmHg 88%
    11:00 +24°C° 0,3 mm 3 m/s 738 mmHg 85%
    12:00 +25°C° 0,6 mm 3 m/s 738 mmHg 84%
    13:00 +25°C° 0,6 mm 3 m/s 737 mmHg 83%
    14:00 +25°C° 0,6 mm 3 m/s 737 mmHg 82%
    15:00 +25°C° 0,6 mm 3 m/s 737 mmHg 82%
    16:00 +25°C° 0,6 mm 3 m/s 737 mmHg 83%
    17:00 +24°C° 0,6 mm 3 m/s 737 mmHg 84%
    18:00 +24°C° 0,2 mm 3 m/s 737 mmHg 86%
    19:00 +23°C° 0,2 mm 2 m/s 737 mmHg 89%
    20:00 +21°C° 0,2 mm 2 m/s 737 mmHg 92%
    21:00 +21°C° 0,1 mm 2 m/s 737 mmHg 94%
    22:00 +21°C° 0,1 mm 2 m/s 737 mmHg 96%
    23:00 +20°C° 0,1 mm 2 m/s 737 mmHg 97%

    23 Iulie, Luni

    Timp Temperatura Precipitaţii Vânt Presiune Umiditate
    00:00 +20°C° 0,3 mm 2 m/s 737 mmHg 98%
    01:00 +20°C° 0,3 mm 2 m/s 737 mmHg 98%
    02:00 +20°C° 0,3 mm 2 m/s 737 mmHg 98%
    03:00 +20°C° 0,2 mm 2 m/s 737 mmHg 98%
    04:00 +20°C° 0,2 mm 2 m/s 737 mmHg 98%
    05:00 +20°C° 0,2 mm 2 m/s 737 mmHg 97%
    06:00 +20°C° 0,2 mm 2 m/s 737 mmHg 96%
    07:00 +21°C° 0,2 mm 2 m/s 737 mmHg 95%
    08:00 +21°C° 0,2 mm 2 m/s 737 mmHg 94%
    09:00 +21°C° 0,1 mm 2 m/s 738 mmHg 92%
    10:00 +23°C° 0,1 mm 2 m/s 738 mmHg 90%
    11:00 +23°C° 0,1 mm 2 m/s 738 mmHg 88%
    12:00 +24°C° 0,1 mm 2 m/s 738 mmHg 86%
    13:00 +24°C° 0,1 mm 2 m/s 738 mmHg 84%
    14:00 +24°C° 0,1 mm 2 m/s 738 mmHg 82%
    15:00 +25°C° 0,5 mm 2 m/s 738 mmHg 82%
    16:00 +25°C° 0,5 mm 2 m/s 738 mmHg 81%
    17:00 +25°C° 0,5 mm 2 m/s 738 mmHg 80%
    18:00 +24°C° 0,3 mm 2 m/s 738 mmHg 85%
    19:00 +23°C° 0,3 mm 2 m/s 738 mmHg 89%
    20:00 +21°C° 0,3 mm 2 m/s 739 mmHg 93%
    21:00 +21°C° 0,5 mm 2 m/s 739 mmHg 94%
    22:00 +20°C° 0,5 mm 2 m/s 739 mmHg 96%
    23:00 +20°C° 0,5 mm 2 m/s 739 mmHg 97%

    24 Iulie, Marţi

    Timp Temperatura Precipitaţii Vânt Presiune Umiditate
    00:00 +20°C° 0,1 mm 2 m/s 739 mmHg 97%
    01:00 +19°C° 0,1 mm 2 m/s 739 mmHg 98%
    02:00 +19°C° 0,1 mm 2 m/s 739 mmHg 98%
    03:00 +19°C° 0,2 mm 2 m/s 739 mmHg 98%
    04:00 +20°C° 0,2 mm 1 m/s 739 mmHg 98%
    05:00 +20°C° 0,2 mm 1 m/s 739 mmHg 98%
    06:00 +21°C° 0,3 mm 1 m/s 739 mmHg 97%
    07:00 +21°C° 0,3 mm 1 m/s 739 mmHg 96%
    08:00 +22°C° 0,3 mm 1 m/s 740 mmHg 95%
    09:00 +22°C° 0,1 mm 1 m/s 740 mmHg 93%
    10:00 +23°C° 0,1 mm 1 m/s 740 mmHg 91%
    11:00 +23°C° 0,1 mm 1 m/s 740 mmHg 90%
    12:00 +24°C° 0,3 mm 1 m/s 740 mmHg 85%
    13:00 +25°C° 0,3 mm 1 m/s 740 mmHg 81%
    14:00 +26°C° 0,3 mm 1 m/s 740 mmHg 77%
    15:00 +26°C° 0,5 mm 1 m/s 740 mmHg 76%
    16:00 +26°C° 0,5 mm 1 m/s 740 mmHg 76%
    17:00 +26°C° 0,5 mm 1 m/s 740 mmHg 75%
    18:00 +25°C° 0,7 mm 1 m/s 741 mmHg 81%
    19:00 +24°C° 0,7 mm 1 m/s 741 mmHg 87%
    20:00 +22°C° 0,7 mm 1 m/s 741 mmHg 93%
    21:00 +22°C° 0,2 mm 1 m/s 741 mmHg 94%
    22:00 +21°C° 0,2 mm 1 m/s 741 mmHg 96%
    23:00 +21°C° 0,2 mm 1 m/s 741 mmHg 97%

    25 Iulie, Miercuri

    Timp Temperatura Precipitaţii Vânt Presiune Umiditate
    00:00 +20°C° 0 mm 1 m/s 741 mmHg 98%
    01:00 +20°C° 0 mm 1 m/s 741 mmHg 98%
    02:00 +20°C° 0 mm 1 m/s 742 mmHg 98%
    03:00 +19°C° 0 mm 2 m/s 742 mmHg 98%
    04:00 +19°C° 0 mm 2 m/s 742 mmHg 98%
    05:00 +19°C° 0 mm 2 m/s 742 mmHg 98%
    06:00 +20°C° 0 mm 2 m/s 743 mmHg 95%
    07:00 +21°C° 0 mm 2 m/s 743 mmHg 92%
    08:00 +23°C° 0 mm 2 m/s 743 mmHg 89%
    09:00 +24°C° 0 mm 2 m/s 743 mmHg 81%
    10:00 +26°C° 0 mm 3 m/s 743 mmHg 74%
    11:00 +27°C° 0 mm 3 m/s 743 mmHg 67%
    12:00 +27°C° 0,3 mm 3 m/s 743 mmHg 71%
    13:00 +26°C° 0,3 mm 3 m/s 743 mmHg 74%
    14:00 +26°C° 0,3 mm 4 m/s 743 mmHg 78%
    15:00 +25°C° 0,3 mm 3 m/s 744 mmHg 82%
    16:00 +22°C° 0,3 mm 3 m/s 744 mmHg 86%
    17:00 +21°C° 0,3 mm 3 m/s 744 mmHg 90%
    18:00 +21°C° 0 mm 2 m/s 744 mmHg 91%
    19:00 +20°C° 0 mm 2 m/s 744 mmHg 91%
    20:00 +19°C° 0 mm 2 m/s 744 mmHg 92%
    21:00 +19°C° 0 mm 2 m/s 744 mmHg 92%
    22:00 +19°C° 0 mm 1 m/s 744 mmHg 92%
    23:00 +18°C° 0 mm 1 m/s 744 mmHg 93%
    Arată mai mult